Terminal Aerodrome Forecast
Issued by NWS

Home | Current Version | Previous Version | Text Only | Print | Product List | Glossary On
Versions: 1 2 3 4 5 6 7 8 9 10 11 12 13 14 15 16 17 18 19 20 21 22 23 24 25 26 27 28 29 30 31 32 33 34 35 36 37 38 39 40
000
FTAK31 PANC 020227 AAB
TAFADU
TAF AMD
PADU 020227Z 0202/0224 36014KT P6SM VCSH OVC030
      TEMPO 0202/0204 SCT030 BKN070
     FM020600 03016G25KT P6SM VCSH BKN025 OVC035
     FM021600 03015G21KT P6SM SCT030 BKN040=

USA.gov is the U.S. government's official web portal to all federal, state and local government web resources and services.